Regional Weather Roundup
Issued by NWS

Home | Current Version | Previous Version | Graphics & Text | Print | Product List | Glossary On
Versions: 1 2 3 4 5 6 7 8 9 10 11 12 13 14 15 16 17 18 19 20 21 22 23 24 25 26 27 28 29 30 31 32 33 34 35 36 37 38 39 40 41 42 43 44 45 46 47 48 49 50
279
ASUS44 KLIX 180510
RWRLA
LOUISIANA WEATHER ROUNDUP
NATIONAL WEATHER SERVICE NEW ORLEANS LA
1200 AM CDT THU SEP 18 2014

NOTE: "FAIR" INDICATES FEW OR NO CLOUDS BELOW 12,000 FEET WITH NO
      SIGNIFICANT WEATHER AND/OR OBSTRUCTIONS TO VISIBILITY.
      SKY/WX - SKY CONDITION AND SIGNIFICANT WEATHER.
      TMP - AIR TEMPERATURE.    DP   - DEWPOINT TEMPERATURE.
      RH  - RELATIVE HUMIDITY.  PRES - PRESSURE.
      HX  - HEAT INDEX.         WCI  - WIND CHILL INDEX.

*  THESE STATIONS ARE NOT NWS OR FAA STATIONS AND ARE NOT UNDER
   NWS QUALITY CONTROL.

LAZ040-048-061>063-065-066-069-180600-
SOUTHEAST LOUISIANA

CITY           SKY/WX    TMP DP  RH WIND       PRES   REMARKS
N.O. AUDUBON     N/A     78  73  83 MISG        N/A
N.O. INTL ARPT PTCLDY    77  71  82 CALM      29.92F
N.O. LAKEFRONT PTCLDY    81  73  76 W5        29.92F
N.O. DOWNTOWN* FAIR      81  70  69 CALM      29.92F
SLIDELL        MOCLDY    75  72  90 CALM      29.91F
BATON ROUGE    PTCLDY    76  73  91 W5        29.93S
BOOTHVILLE     CLEAR     80  75  84 CALM      29.93S
BELLE CHASSE   CLEAR     74  70  87 CALM      29.92S
BOGALUSA*      FAIR      76  73  88 CALM      29.93F
GALLIANO*      NOT AVBL
NEW ROADS*     FAIR      74  74  98 CALM      29.93S FOG
GONZALES*      FAIR      74  74 100 CALM      29.92S
HAMMOND*       MOCLDY    75  72  88 CALM      29.94S
HOUMA*           N/A    N/A N/A N/A CALM      29.92F FOG
PORT FOURCHON* MOCLDY    81  75  83 N6        29.95F

$$

LAZ041-044-053-054-180600-
SOUTHWEST LOUISIANA

CITY           SKY/WX    TMP DP  RH WIND       PRES   REMARKS
LAKE CHARLES   CLOUDY    76  75  97 CALM      29.92S
LAFAYETTE      CLEAR     78  76  93 CALM      29.93S
PATTERSON      PTCLDY    73  73 100 CALM      29.95
SALT POINT       N/A     80  76  87 CALM      29.92S
NEW IBERIA     CLEAR     75  74  96 CALM      29.93S
CHENAULT AIRPK NOT AVBL

$$

LAZ027-028-180600-
CENTRAL LOUISIANA

CITY           SKY/WX    TMP DP  RH WIND       PRES   REMARKS
FORT POLK      PTCLDY    72  71  97 CALM      29.93S
ALEXANDRIA INT CLEAR     75  73  93 CALM      29.91F
ALEXANDRIA     CLEAR     72  71  97 SW3       29.92F

$$

LAZ001-002-180600-
NORTHWEST LOUISIANA

CITY           SKY/WX    TMP DP  RH WIND       PRES   REMARKS
SHREVEPORT     MOCLDY    78  71  79 SW6       29.90F
BARKSDALE AFB  MOCLDY    74  71  90 S3        29.91F
DTN SHREVEPORT MOCLDY    78  72  81 S5        29.91S

$$

LAZ014-016-180600-
NORTHEAST LOUISIANA

CITY           SKY/WX    TMP DP  RH WIND       PRES   REMARKS
MONROE         MOCLDY    76  72  87 CALM      29.91F
TALLULAH       CLOUDY    74  71  91 CALM      29.91F

$$




USA.gov is the U.S. government's official web portal to all federal, state and local government web resources and services.